Theta_e
309 309 309 310 310 311 311 311 311 312 313 315 316 318 318 319 320 316 308 315 315 324 322 308 315 312 314 306 311 316 308 306 307 306 307 313 312 313 316 315 317 320 318 324 336
307 308 308 308 309 309 310 310 310 310 311 313 315 316 317 318 313 308 318 322 323 325 310 304 308 310 304 303 309 308 303 307 313 313 310 312 313 311 312 313 315 318 324 331 333
307 307 307 307 308 309 309 310 310 310 309 311 313 315 316 316 306 305 320 321 324 324 311 307 309 309 302 303 304 307 302 306 311 313 313 311 311 314 311 310 315 316 321 326 328
306 306 307 307 307 308 308 309 309 309 309 309 312 314 314 310 291 310 321 320 324 319 311 304 307 308 307 298 302 301 306 305 308 314 313 309 313 311 313 314 318 321 326 327 327
306 306 306 307 308 308 308 308 308 308 309 309 310 313 308 301 302 314 318 317 313 315 307 301 300 305 301 301 298 301 304 306 307 311 312 311 310 312 312 316 318 321 327 328 329
306 306 306 306 307 307 308 308 308 308 309 309 309 311 303 292 309 313 310 312 310 311 308 301 298 304 304 304 296 300 303 304 306 307 308 310 310 310 314 317 318 321 324 328 329
306 306 306 306 306 306 307 307 307 308 308 309 309 307 300 296 309 310 309 309 310 309 304 306 302 300 300 297 305 301 298 301 303 305 305 308 304 307 314 314 315 319 323 325 328
307 305 305 306 306 306 306 307 307 307 308 308 308 305 293 306 310 307 311 309 311 311 311 309 304 302 300 301 298 296 297 295 301 303 305 306 299 307 312 313 314 317 321 324 326
307 306 305 305 305 306 306 306 307 307 308 307 303 300 290 307 303 306 306 303 309 308 311 311 303 299 302 295 292 294 290 294 296 302 303 303 299 304 307 312 313 315 319 322 324
307 306 305 305 305 305 306 306 306 306 305 304 303 293 297 295 302 308 310 307 305 306 305 304 299 294 295 292 285 289 291 296 294 297 299 300 299 303 304 306 311 315 317 320 322
307 306 305 304 304 305 304 301 294 292 296 291 291 291 294 299 304 302 308 306 304 302 295 300 291 287 290 291 291 293 291 294 294 294 297 298 299 301 303 302 304 307 313 317 320
306 306 304 304 303 304 302 294 294 295 286 293 293 294 297 298 292 298 307 298 297 293 297 295 289 292 293 293 291 290 289 289 290 294 294 294 295 300 303 303 304 304 306 310 315
306 306 304 303 303 300 296 295 300 299 287 288 292 292 293 296 292 294 300 299 294 293 293 290 291 294 292 291 290 289 288 287 289 290 291 291 291 294 298 299 301 304 307 306 307
307 306 303 302 296 297 295 298 300 298 281 282 287 291 294 294 288 298 300 298 295 290 293 292 295 291 290 289 291 286 293 291 289 287 284 289 285 294 294 295 296 299 302 304 307
306 305 303 300 296 294 295 299 299 294 268 282 286 298 295 290 291 293 300 297 290 291 291 289 291 290 288 288 292 288 294 291 291 288 287 286 284 290 291 291 294 296 298 301 304
305 304 304 300 298 298 300 300 295 278 269 277 286 286 286 289 289 293 295 299 297 290 292 292 297 294 292 292 293 294 292 291 290 288 280 285 284 286 289 291 293 295 297 298 299
305 304 300 298 292 300 299 292 278 272 278 278 279 283 284 284 286 287 286 288 287 283 284 288 291 294 295 289 292 293 288 280 278 280 279 286 283 287 292 293 294 294 296 297 297
305 303 299 298 300 299 294 284 271 271 274 280 282 283 278 282 284 285 284 285 290 288 286 283 281 290 293 291 287 288 286 281 274 276 279 283 280 285 292 294 295 295 296 297 298
302 297 296 298 299 298 288 276 273 274 280 280 281 277 277 280 281 282 283 281 286 286 283 282 282 293 293 293 292 287 283 288 282 280 280 282 286 290 292 293 293 293 294 295 295
296 293 292 299 297 291 283 277 277 281 281 282 276 279 275 277 278 279 279 282 282 285 285 286 280 288 291 293 292 290 292 281 284 276 275 279 281 285 287 289 291 293 294 295 298
295 287 294 300 295 286 278 275 275 282 282 280 278 278 278 277 279 278 278 282 284 284 287 286 285 283 289 288 286 287 285 286 286 283 278 276 281 289 290 292 293 294 295 297 298
289 281 296 295 282 278 278 275 281 283 284 281 282 281 279 279 278 277 278 280 286 286 281 284 285 281 284 290 292 291 288 287 281 279 282 280 282 289 290 290 294 294 295 296 297
287 286 296 293 278 278 276 278 281 281 282 281 280 281 282 280 276 279 280 285 286 286 282 284 281 278 280 284 287 287 289 289 288 286 281 280 282 290 289 291 291 292 295 296 296
287 280 285 286 279 277 275 277 278 283 282 283 281 281 280 279 281 278 280 284 287 287 289 287 280 278 276 278 283 282 284 287 287 283 282 283 285 287 290 292 293 293 294 294 296
284 279 278 277 279 277 278 277 278 278 281 283 281 281 278 275 278 279 281 282 286 288 287 284 277 279 280 281 281 281 281 281 284 286 283 285 285 289 291 292 293 294 295 295 296
284 281 280 279 279 277 275 276 277 280 280 279 279 281 281 277 278 277 280 281 281 285 285 285 278 279 277 280 280 278 281 282 282 281 282 283 283 292 292 292 292 294 294 293 294
287 286 285 279 279 276 277 277 278 281 282 283 282 281 280 282 284 284 284 284 283 281 282 281 280 277 274 278 278 274 278 281 282 283 284 281 286 289 287 289 290 291 292 292 292
Wind_Speed
13 11 13 14 15 15 15 16 16 17 16 17 16 16 16 15 14 7 10 7 5 5 6 6 6 10 9 5 3 2 6 10 12 10 7 9 12 5 2 7 5 6 2 3 21
11 12 12 12 13 15 16 17 17 16 17 17 18 16 17 18 11 11 12 15 13 2 5 4 2 5 3 6 3 6 6 11 4 6 6 12 13 13 8 9 8 9 4 9 18
12 13 13 14 15 15 15 16 17 17 17 17 16 17 15 16 8 5 4 5 14 9 5 5 6 4 3 7 6 3 9 5 4 5 3 9 11 9 8 12 13 15 14 15 16
10 10 12 13 15 15 16 15 15 16 16 16 17 16 16 7 6 4 7 6 6 8 9 8 4 6 7 8 4 10 10 5 3 3 4 6 5 8 14 4 4 8 17 19 19
10 10 11 13 15 17 15 16 15 16 16 15 15 16 7 7 10 4 9 6 0 4 9 10 8 6 8 6 2 12 12 5 5 3 4 4 8 7 12 6 1 9 16 19 19
9 11 12 13 14 15 16 15 16 15 16 15 15 16 5 14 9 1 10 8 6 4 4 7 7 11 8 9 8 7 8 8 5 4 3 5 4 5 8 10 5 12 15 16 20
10 9 11 13 15 15 14 15 16 16 15 16 14 10 12 15 13 14 16 8 7 5 6 6 5 6 5 6 8 8 15 7 9 7 4 4 5 12 6 7 10 11 13 14 15
9 8 9 11 14 14 15 15 16 16 17 14 14 7 10 6 12 13 10 9 8 8 8 4 5 5 3 3 10 9 7 10 11 9 5 9 16 15 8 9 14 12 12 13 16
9 8 7 9 12 14 14 17 17 17 16 12 9 6 11 6 7 15 12 12 6 7 7 3 5 5 6 8 8 12 13 21 19 11 7 13 13 17 10 11 12 15 14 12 13
10 9 7 9 12 13 15 18 15 10 5 5 5 3 8 4 6 5 10 13 7 8 6 8 7 10 10 15 21 17 20 20 22 9 10 14 16 14 6 12 15 13 14 13 14
9 8 6 8 11 13 10 4 3 2 3 6 3 8 4 10 6 8 10 12 4 10 16 14 11 20 24 22 8 13 12 19 9 3 5 18 19 21 9 6 11 12 12 14 15
10 6 5 6 9 10 4 4 2 4 10 12 17 17 14 1 7 10 7 14 10 18 17 10 21 15 10 14 18 8 11 11 4 4 6 6 16 20 15 14 12 13 14 14 13
10 7 4 5 7 2 3 4 6 2 5 7 7 9 9 10 8 12 7 13 11 23 22 21 5 13 14 14 19 17 14 5 6 6 1 5 14 14 12 15 15 15 14 11 14
11 7 3 4 2 2 0 6 3 1 4 3 3 2 5 9 11 11 7 9 16 14 22 15 12 17 17 17 17 21 12 9 8 6 8 3 17 17 12 14 11 13 14 17 17
9 4 6 2 1 1 4 6 2 3 4 8 4 7 3 11 1 9 10 9 6 10 5 12 19 16 18 22 16 13 13 12 8 6 4 5 8 13 1 11 12 11 14 15 16
4 8 10 3 1 1 5 2 1 4 2 5 6 7 6 10 7 4 6 6 3 5 13 8 8 15 11 13 17 16 13 9 6 3 9 19 10 14 13 9 6 5 6 8 8
8 10 4 2 2 1 3 0 3 2 2 7 4 8 7 5 8 9 4 11 9 6 6 9 13 6 10 17 11 13 20 6 5 7 12 9 9 17 5 5 6 5 7 4 2
11 11 5 3 3 2 0 1 1 1 4 4 5 3 6 9 5 6 4 7 18 4 3 7 8 14 12 17 13 18 20 8 10 8 14 6 11 8 6 6 7 7 8 8 7
14 2 3 5 2 1 1 2 2 2 5 8 7 3 5 4 5 2 9 7 6 3 6 4 6 10 16 7 15 15 13 3 6 1 3 7 7 9 6 8 1 5 2 6 7
4 2 2 3 1 2 2 2 2 3 5 3 5 5 5 9 5 6 5 5 7 4 8 2 3 4 9 6 3 13 14 7 2 8 6 5 6 6 3 2 5 5 7 6 7
4 3 2 4 1 2 2 1 4 4 3 4 5 4 4 5 7 5 5 1 5 5 6 2 2 2 6 10 15 7 13 5 5 2 5 4 4 1 7 9 9 9 9 8 8
3 3 2 2 2 2 1 1 3 3 2 3 3 4 4 4 5 3 4 2 6 5 4 4 4 6 5 3 3 14 12 15 9 8 8 1 2 5 10 4 6 9 6 5 4
3 2 1 2 2 2 3 3 2 3 4 4 3 4 4 4 5 4 5 5 5 7 6 6 3 1 9 4 3 4 5 14 6 2 10 10 7 5 5 4 4 6 6 4 4
3 2 2 3 2 2 3 4 4 1 2 3 3 2 4 4 3 4 7 3 4 4 6 1 4 4 5 5 3 4 3 2 10 7 12 12 15 9 5 3 1 3 5 5 7
3 2 1 1 1 2 1 3 4 3 2 4 3 5 3 4 4 4 6 7 5 7 4 3 3 3 5 5 4 2 1 2 5 3 9 9 11 7 9 13 13 12 11 10 7
2 4 2 3 4 2 2 2 2 3 2 2 1 6 3 1 1 4 7 5 5 6 4 2 4 1 3 5 2 1 4 6 6 5 8 10 16 9 4 5 6 7 7 10 12
2 2 2 2 1 1 1 2 2 2 2 2 1 3 5 3 2 2 3 6 5 6 6 4 2 0 3 5 3 5 8 11 6 7 7 10 10 5 3 2 4 6 7 7 9
Wind_Direction
16 11 360 352 341 340 339 333 337 339 337 336 339 339 338 329 318 283 266 247 246 333 358 317 22 359 320 277 255 252 237 221 215 210 199 159 184 164 139 161 192 186 293 27 142
7 0 357 350 343 335 329 327 329 335 331 330 333 335 335 330 306 275 249 248 259 268 307 347 13 8 334 298 254 235 238 225 238 214 216 180 204 161 184 179 199 180 123 138 148
2 354 353 347 340 332 326 322 319 323 330 324 326 326 334 325 296 282 2 263 236 214 214 115 104 95 87 312 262 197 239 257 249 225 238 188 204 182 197 203 203 194 163 162 165
359 353 341 337 334 326 324 321 318 315 320 321 321 328 326 308 256 49 360 17 85 172 190 137 121 147 199 185 291 252 245 251 313 212 191 193 171 205 210 163 244 196 160 164 177
340 339 335 333 334 324 317 314 315 316 317 317 314 321 319 253 246 334 338 328 343 175 200 185 161 183 203 206 289 252 251 218 265 233 248 163 208 211 226 217 70 158 163 175 180
327 330 328 328 329 324 315 312 311 311 311 311 307 316 272 261 283 328 6 334 249 233 194 214 198 199 221 197 158 317 265 273 227 224 245 234 208 196 225 204 171 173 190 187 188
311 322 322 329 327 327 322 316 309 308 305 305 306 308 261 241 283 292 304 292 282 228 228 208 221 212 185 166 192 258 274 263 236 216 220 200 225 229 202 182 204 207 196 199 200
286 309 314 324 326 323 320 311 304 299 297 293 299 291 262 274 265 282 279 278 255 251 248 234 210 221 217 91 166 179 245 256 240 196 206 199 239 237 196 188 209 209 215 202 203
281 290 299 313 323 324 318 312 304 296 290 287 292 244 265 283 239 248 234 248 259 228 236 225 176 210 174 184 173 196 206 212 242 213 187 205 232 242 204 211 218 212 212 212 213
289 281 291 308 322 326 321 314 299 299 288 262 243 269 247 249 266 245 234 211 222 200 207 199 204 199 199 200 205 195 218 199 215 187 216 207 230 235 218 220 225 222 215 216 220
302 270 280 306 323 329 339 323 341 222 227 234 224 256 209 332 283 244 229 190 157 211 199 193 200 207 203 207 235 242 214 221 197 94 239 223 228 237 207 233 234 236 236 224 222
323 272 273 303 321 339 340 327 310 337 293 254 252 251 258 105 279 264 217 220 195 207 196 185 220 209 214 208 208 179 203 203 105 114 189 239 240 249 243 245 238 237 236 242 241
294 279 263 303 333 68 329 16 344 274 265 281 232 262 242 194 241 253 222 222 215 205 190 208 208 182 188 191 200 211 199 184 215 126 130 266 251 247 244 235 240 240 247 251 250
297 272 221 328 159 345 189 337 315 314 270 283 243 269 211 201 260 239 237 229 209 216 185 216 194 193 192 200 198 207 205 163 134 131 234 315 263 224 237 249 234 239 231 238 242
295 196 130 52 73 327 321 324 303 210 266 344 307 320 314 196 230 203 203 206 218 203 188 181 178 173 195 201 192 217 170 180 142 133 159 220 266 253 279 254 249 234 232 237 243
167 163 132 99 107 339 329 20 165 218 286 334 325 328 292 220 247 314 198 223 117 255 240 194 198 176 183 172 184 137 128 89 77 138 240 226 225 255 221 227 248 235 238 252 269
170 149 119 122 13 28 20 332 236 328 324 340 333 1 19 285 234 244 260 217 209 179 195 163 163 153 173 138 164 166 158 139 167 195 232 185 216 251 240 236 250 293 310 326 346
154 120 69 55 305 315 48 194 35 278 291 324 304 317 23 337 220 235 233 252 227 270 202 188 168 172 173 185 177 190 185 179 194 198 216 148 222 243 231 257 274 288 303 309 313
113 69 65 4 348 264 269 45 13 274 310 314 306 318 334 344 322 248 197 341 0 21 229 210 191 177 174 166 166 184 210 118 108 75 193 184 239 264 264 256 132 48 1 350 2
104 84 29 347 350 60 73 88 251 275 305 270 345 353 328 349 3 349 52 6 340 16 303 154 133 225 164 146 167 192 169 158 148 171 216 196 238 244 159 106 16 58 46 28 12
87 90 306 336 340 32 57 250 283 261 276 302 344 324 349 322 344 20 64 77 348 345 318 342 283 91 162 205 182 162 187 196 168 197 209 227 195 216 140 118 93 75 75 56 39
91 73 325 354 34 40 26 245 296 298 276 305 276 315 324 332 332 323 57 277 358 344 6 355 2 174 168 30 289 203 194 198 195 196 225 110 143 124 115 83 92 85 69 62 47
80 100 28 21 35 19 323 263 261 317 330 332 2 15 334 336 318 323 3 9 4 8 17 344 38 301 136 118 51 203 187 203 197 254 200 200 175 142 131 81 94 29 343 352 355
114 105 3 56 56 84 339 357 332 14 298 337 335 311 335 9 8 320 337 15 3 19 47 144 39 20 10 50 75 143 66 277 209 214 220 228 236 150 176 265 310 324 307 318 347
24 93 11 114 131 92 301 323 319 10 1 346 348 36 24 354 349 7 351 341 40 17 19 57 61 88 81 74 41 81 154 90 192 227 229 242 256 267 310 328 332 330 324 319 320
124 144 158 127 194 170 292 225 292 323 303 346 37 335 19 308 289 319 345 11 19 357 44 360 130 77 13 42 187 272 235 237 229 238 256 273 279 259 308 344 328 327 329 332 334
128 96 124 3 357 347 240 250 247 324 198 253 237 307 296 317 283 290 312 321 318 332 356 11 91 46 122 355 83 282 233 213 204 202 230 239 276 79 5 347 321 328 335 350 349